Location: Aalen
(48.8330°N, 10.1000°E)
Time: 12:34:35
(UTC+02:00)

Tiros 1 despin weight - All Passes

Search period start: 03 August 2021 00:00
Search period end: 13 August 2021 00:00
Orbit: 593 x 642 km, 48.2° (Epoch: 02 August)

Date Brightness Start Highest point End Pass type
(mag) Time Alt. Az. Time Alt. Az. Time Alt. Az.
03 Aug - 13:28:58 10° SSW 13:32:47 25° SE 13:36:37 10° E daylight
03 Aug - 15:09:13 10° WSW 15:13:51 65° SSE 15:18:31 10° E daylight
03 Aug - 16:50:40 10° W 16:55:22 84° S 17:00:05 10° E daylight
03 Aug - 18:32:15 10° W 18:36:48 50° SSW 18:41:18 10° SE daylight
03 Aug - 20:14:43 10° W 20:17:37 16° SW 20:20:30 10° S daylight
04 Aug - 12:07:04 10° SSE 12:08:11 11° SE 12:09:18 10° ESE daylight
04 Aug - 13:44:28 10° SW 13:48:47 38° SSE 13:53:08 10° E daylight
04 Aug - 15:25:24 10° WSW 15:30:05 78° S 15:34:48 10° E daylight
04 Aug - 17:06:56 10° W 17:11:39 75° S 17:16:19 10° ESE daylight
04 Aug - 18:48:39 10° W 18:52:53 34° SSW 18:57:05 10° SE daylight
05 Aug - 12:20:45 10° S 12:23:59 19° SE 12:27:16 10° E daylight
05 Aug - 14:00:21 10° SW 14:04:54 55° SSE 14:09:30 10° E daylight
05 Aug - 15:41:40 10° W 15:46:22 84° S 15:51:05 10° E daylight
05 Aug - 17:23:14 10° W 17:27:52 60° SSW 17:32:28 10° ESE daylight
05 Aug - 19:05:15 10° W 19:08:51 22° SW 19:12:26 10° SSE daylight
06 Aug - 12:35:54 10° SSW 12:39:56 30° SSE 12:44:01 10° E daylight
06 Aug - 14:16:28 10° WSW 14:21:06 71° SSE 14:25:47 10° E daylight
06 Aug - 15:57:57 10° W 16:02:39 81° S 16:07:21 10° E daylight
06 Aug - 17:39:33 10° W 17:44:01 43° SSW 17:48:26 10° SE daylight
06 Aug - 19:22:32 10° WSW 19:24:43 13° SW 19:26:53 10° SSW daylight
07 Aug - 11:12:57 10° SSE 11:15:16 14° SE 11:17:35 10° ESE daylight
07 Aug - 12:51:35 10° SW 12:55:59 44° SSE 13:00:27 10° E daylight
07 Aug - 14:32:40 10° W 14:37:21 82° S 14:42:04 10° E daylight
07 Aug - 16:14:13 10° W 16:18:54 70° SSW 16:23:34 10° ESE daylight
07 Aug - 17:56:01 10° W 18:00:03 29° SSW 18:04:04 10° SSE daylight
08 Aug - 11:27:31 10° SSW 11:31:07 23° SE 11:34:47 10° E daylight
08 Aug - 13:07:33 10° WSW 13:12:08 61° SSE 13:16:46 10° E daylight
08 Aug - 14:48:57 10° W 14:53:38 84° S 14:58:22 10° E daylight
08 Aug - 16:30:31 10° W 16:35:05 53° SSW 16:39:39 10° SE daylight
08 Aug - 18:12:48 10° W 18:15:59 18° SW 18:19:09 10° S daylight
09 Aug - 11:42:55 10° SW 11:47:07 35° SSE 11:51:22 10° E daylight
09 Aug - 13:23:43 10° WSW 13:28:21 76° S 13:33:03 10° E daylight
09 Aug - 15:05:14 10° W 15:09:55 77° S 15:14:37 10° ESE daylight
09 Aug - 16:46:53 10° W 16:51:12 37° SSW 16:55:30 10° SE daylight
09 Aug - 18:31:12 10° SW 18:31:48 10° SW 18:32:23 10° SW daylight
10 Aug - 10:19:25 10° S 10:22:21 17° SE 10:25:20 10° E daylight
10 Aug - 11:58:43 10° SW 12:03:12 51° SSE 12:07:44 10° E daylight
10 Aug - 13:39:58 10° W 13:44:38 84° S 13:49:20 10° E daylight
10 Aug - 15:21:30 10° W 15:26:09 63° SSW 15:30:47 10° ESE daylight
10 Aug - 17:03:26 10° W 17:07:12 24° SW 17:10:57 10° SSE daylight
11 Aug - 10:34:24 10° SSW 10:38:16 27° SE 10:42:12 10° E daylight
11 Aug - 12:14:47 10° WSW 12:19:23 68° SSE 12:24:02 10° E daylight
11 Aug - 13:56:14 10° W 14:00:55 83° S 14:05:37 10° E daylight
11 Aug - 15:37:49 10° W 15:42:18 46° SSW 15:46:47 10° SE daylight
11 Aug - 17:20:30 10° WSW 17:23:05 15° SW 17:25:41 10° S daylight
12 Aug - 09:11:55 10° SSE 09:13:38 12° SE 09:15:23 10° ESE daylight
12 Aug - 10:49:59 10° SW 10:54:18 41° SSE 10:58:40 10° E daylight
12 Aug - 12:30:59 10° W 12:35:38 80° S 12:40:19 10° E daylight
12 Aug - 14:12:31 10° W 14:17:10 72° SSW 14:21:51 10° ESE daylight
12 Aug - 15:54:14 10° W 15:58:22 31° SSW 16:02:30 10° SSE daylight
